{"data":{"norad_id":68857,"epoch":"2026-05-25T04:00:03.998880Z","epoch_age_seconds":71307,"freshness":"FRESH","line1":"1 68857U 26094U   26145.16671295 -.00019569  00000+0 -35906-3 0  9997","line2":"2 68857  97.2844 159.9525 0001338  70.0681 213.2591 15.49187405  5678","mean_motion":15.49187405,"eccentricity":0.0001338,"inclination_deg":97.2844,"raan_deg":159.9525,"arg_perigee_deg":70.0681,"mean_anomaly_deg":213.2591,"bstar":-0.00035906,"rev_number":567,"period_min":92.95195631932,"perigee_km":418.19246320489,"apogee_km":420.01140434357,"semimajor_km":6797.2389337742,"source":"CELESTRAK","updated_at":"2026-05-25T13:38:22.064386Z"}}